Weather History for KBBD - November, 2012

Change the Weather History Date:

Saturday, November 10, 2012

  Actual Average (KJCT) Record (KJCT)
Temperature  
Mean Temperature 71 °F -  
Max Temperature 80 °F 66 °F 82 °F (2002)
Min Temperature 62 °F 44 °F 30 °F (2011)
Cooling Degree Days 6    
Growing Degree Days 21 (Base 50)    
Moisture  
Dew Point 57 °F    
Average Humidity 63    
Maximum Humidity 88    
Minimum Humidity 39    
Precipitation  
Precipitation 0.00 in - - ()
Sea Level Pressure  
Sea Level Pressure 29.89 in    
Wind  
Wind Speed 16 mph (SSE)    
Max Wind Speed 24 mph    
Max Gust Speed 31 mph    
Visibility 10 miles    
Events      
Averages and records for this station are not official NWS values.
T = Trace of Precipitation, MM = Missing Value Source: NWS Daily Summary

Daily Weather History Graph

Daily Weather History Graph

Search for Another Location

Airport or City:

Trip Planner

Search our weather history database for the weather conditions in past years. The results will help you decide how hot, cold, wet, or windy it might be!

Date:

Astronomy

Nov. 10, 2012 Rise Set
Actual Time 7:00 AM CST 5:41 PM CST
Civil Twilight 6:35 AM CST 6:06 PM CST
Nautical Twilight 6:06 AM CST 6:36 PM CST
Astronomical Twilight 5:37 AM CST 7:04 PM CST
Moon 3:20 AM CST (11/10) 3:18 PM CST (11/10)
Length of Visible Light 11h 31m
Length of Day
10h 40m
Waning Crescent, 14% of the Moon is Illuminated
Nov 10
Waning Crescent
Nov 13
New
Nov 20
First Quarter
Nov 28
Full
Dec 6
Last Quarter

Hourly Weather History & Observations

Time (CST) Temp. Heat Index Dew Point Humidity Pressure Visibility Wind Dir Wind Speed Gust Speed Precip Events Conditions
12:15 AM 66.2 °F - 57.2 °F 73% 29.97 in 10.0 mi SSE 15.0 mph - N/A   Clear
12:35 AM 66.2 °F - 57.2 °F 73% 29.97 in 10.0 mi SSE 12.7 mph - N/A   Clear
12:55 AM 66.2 °F - 57.2 °F 73% 29.96 in 10.0 mi SSE 13.8 mph - N/A   Clear
1:15 AM 64.4 °F - 57.2 °F 77% 29.96 in 10.0 mi SSE 13.8 mph - N/A   Clear
1:35 AM 64.4 °F - 57.2 °F 77% 29.95 in 10.0 mi SSE 12.7 mph - N/A   Clear
1:55 AM 64.4 °F - 57.2 °F 77% 29.95 in 10.0 mi SSE 12.7 mph - N/A   Clear
2:15 AM 64.4 °F - 59.0 °F 83% 29.95 in 10.0 mi SSE 11.5 mph - N/A   Clear
2:35 AM 64.4 °F - 59.0 °F 83% 29.95 in 10.0 mi SSE 11.5 mph - N/A   Clear
2:55 AM 62.6 °F - 59.0 °F 88% 29.94 in 10.0 mi SSE 11.5 mph - N/A   Clear
3:15 AM 62.6 °F - 59.0 °F 88% 29.94 in 10.0 mi SSE 11.5 mph - N/A   Clear
3:35 AM 64.4 °F - 59.0 °F 83% 29.94 in 10.0 mi South 15.0 mph - N/A   Partly Cloudy
3:55 AM 64.4 °F - 57.2 °F 77% 29.94 in 10.0 mi South 13.8 mph - N/A   Scattered Clouds
4:15 AM 64.4 °F - 57.2 °F 77% 29.93 in 10.0 mi SSE 15.0 mph - N/A   Mostly Cloudy
4:35 AM 64.4 °F - 57.2 °F 77% 29.93 in 10.0 mi SSE 16.1 mph - N/A   Overcast
4:55 AM 66.2 °F - 57.2 °F 73% 29.93 in 10.0 mi SSE 13.8 mph - N/A   Overcast
5:15 AM 66.2 °F - 57.2 °F 73% 29.93 in 10.0 mi SSE 13.8 mph - N/A   Overcast
6:35 AM 66.2 °F - 59.0 °F 78% 29.93 in 10.0 mi South 15.0 mph - N/A   Overcast
6:55 AM 66.2 °F - 59.0 °F 78% 29.94 in 10.0 mi South 16.1 mph - N/A   Overcast
7:15 AM 66.2 °F - 59.0 °F 78% 29.95 in 10.0 mi South 13.8 mph - N/A   Overcast
7:35 AM 66.2 °F - 59.0 °F 78% 29.94 in 10.0 mi South 21.9 mph - N/A   Overcast
7:55 AM 66.2 °F - 59.0 °F 78% 29.95 in 10.0 mi South 18.4 mph - N/A   Overcast
8:15 AM 68.0 °F - 59.0 °F 73% 29.96 in 10.0 mi South 16.1 mph - N/A   Overcast
8:55 AM 69.8 °F - 59.0 °F 68% 29.97 in 10.0 mi South 20.7 mph - N/A   Overcast
9:15 AM 69.8 °F - 59.0 °F 68% 29.97 in 10.0 mi South 19.6 mph - N/A   Overcast
9:35 AM 69.8 °F - 59.0 °F 68% 29.97 in 10.0 mi South 17.3 mph - N/A   Mostly Cloudy
9:55 AM 71.6 °F - 59.0 °F 64% 29.97 in 10.0 mi South 24.2 mph - N/A   Mostly Cloudy
10:15 AM 73.4 °F - 57.2 °F 57% 29.96 in 3.0 mi South 24.2 mph - N/A   Haze
10:35 AM 75.2 °F - 59.0 °F 57% 29.96 in 10.0 mi South 23.0 mph - N/A   Mostly Cloudy
10:55 AM 73.4 °F - 57.2 °F 57% 29.96 in 10.0 mi South 19.6 mph - N/A   Partly Cloudy
11:15 AM 75.2 °F - 57.2 °F 53% 29.94 in 10.0 mi South 20.7 mph - N/A   Clear
11:35 AM 75.2 °F - 59.0 °F 57% 29.93 in 10.0 mi South 21.9 mph - N/A   Clear
11:55 AM 75.2 °F - 57.2 °F 53% 29.93 in 10.0 mi South 20.7 mph 31.1 mph N/A   Clear
12:15 PM 77.0 °F - 57.2 °F 50% 29.92 in 10.0 mi South 18.4 mph - N/A   Clear
12:35 PM 78.8 °F - 55.4 °F 44% 29.90 in 10.0 mi South 20.7 mph - N/A   Clear
12:55 PM 78.8 °F - 55.4 °F 44% 29.89 in 10.0 mi South 19.6 mph - N/A   Clear
1:15 PM 78.8 °F - 55.4 °F 44% 29.88 in 10.0 mi SSE 16.1 mph - N/A   Clear
1:35 PM 78.8 °F - 53.6 °F 42% 29.87 in 10.0 mi SSE 19.6 mph - N/A   Clear
1:55 PM 78.8 °F - 55.4 °F 44% 29.86 in 10.0 mi SSE 17.3 mph - N/A   Clear
2:15 PM 78.8 °F - 55.4 °F 44% 29.85 in 10.0 mi SSE 17.3 mph - N/A   Clear
2:35 PM 78.8 °F - 53.6 °F 42% 29.84 in 10.0 mi South 18.4 mph - N/A   Clear
2:55 PM 78.8 °F - 53.6 °F 42% 29.82 in 10.0 mi SSE 23.0 mph - N/A   Clear
3:15 PM 80.6 °F 80.3 °F 53.6 °F 39% 29.82 in 10.0 mi SSE 17.3 mph - N/A   Clear
3:35 PM 78.8 °F - 53.6 °F 42% 29.82 in 10.0 mi SSE 16.1 mph - N/A   Clear
3:55 PM 78.8 °F - 53.6 °F 42% 29.82 in 10.0 mi SSE 17.3 mph - N/A   Clear
4:15 PM 77.0 °F - 53.6 °F 44% 29.82 in 10.0 mi SSE 17.3 mph - N/A   Clear
4:35 PM 77.0 °F - 53.6 °F 44% 29.82 in 10.0 mi SSE 16.1 mph - N/A   Clear
4:55 PM 75.2 °F - 55.4 °F 50% 29.82 in 10.0 mi SSE 20.7 mph - N/A   Clear
5:15 PM 75.2 °F - 55.4 °F 50% 29.82 in 10.0 mi SSE 15.0 mph - N/A   Clear
5:35 PM 75.2 °F - 55.4 °F 50% 29.81 in 10.0 mi SSE 16.1 mph - N/A   Clear
5:55 PM 73.4 °F - 55.4 °F 53% 29.81 in 10.0 mi SSE 18.4 mph - N/A   Clear
6:15 PM 73.4 °F - 53.6 °F 50% 29.82 in 10.0 mi SSE 18.4 mph - N/A   Clear
6:35 PM 73.4 °F - 55.4 °F 53% 29.84 in 9.0 mi SSE 17.3 mph - N/A   Clear
6:55 PM 71.6 °F - 55.4 °F 57% 29.84 in 10.0 mi SSE 16.1 mph - N/A   Clear
7:15 PM 71.6 °F - 55.4 °F 57% 29.85 in 10.0 mi SSE 15.0 mph - N/A   Clear
7:35 PM 71.6 °F - 55.4 °F 57% 29.84 in 10.0 mi SE 13.8 mph - N/A   Clear
7:55 PM 69.8 °F - 55.4 °F 60% 29.84 in 10.0 mi SE 13.8 mph - N/A   Clear
8:15 PM 69.8 °F - 55.4 °F 60% 29.85 in 10.0 mi SE 15.0 mph - N/A   Clear
8:35 PM 69.8 °F - 55.4 °F 60% 29.85 in 10.0 mi SSE 13.8 mph - N/A   Clear
8:55 PM 69.8 °F - 57.2 °F 64% 29.85 in 10.0 mi SSE 17.3 mph - N/A   Clear
9:15 PM 69.8 °F - 57.2 °F 64% 29.86 in 10.0 mi SSE 16.1 mph - N/A   Clear
9:35 PM 69.8 °F - 59.0 °F 68% 29.86 in 10.0 mi SE 15.0 mph - N/A   Clear
9:55 PM 69.8 °F - 59.0 °F 68% 29.85 in 10.0 mi SE 16.1 mph - N/A   Clear
10:15 PM 69.8 °F - 60.8 °F 73% 29.85 in 10.0 mi SE 16.1 mph - N/A   Clear
10:35 PM 69.8 °F - 60.8 °F 73% 29.84 in 10.0 mi SSE 16.1 mph - N/A   Clear
10:55 PM 69.8 °F - 60.8 °F 73% 29.84 in 10.0 mi SSE 18.4 mph - N/A   Partly Cloudy
11:15 PM 69.8 °F - 60.8 °F 73% 29.84 in 10.0 mi SSE 19.6 mph - N/A   Scattered Clouds
11:35 PM 69.8 °F - 60.8 °F 73% 29.83 in 10.0 mi SSE 16.1 mph - N/A   Mostly Cloudy
11:55 PM 69.8 °F - 60.8 °F 73% 29.82 in 10.0 mi SSE 21.9 mph - N/A   Partly Cloudy